Time,TemperatureF,DewpointF,PressureIn,WindDirection,WindDirectionDegrees,WindSpeedMPH,WindSpeedGustMPH,Humidity,HourlyPrecipIn,Conditions,Clouds,dailyrainin,SoftwareType,DateUTC
2013-11-09 00:01:00,48.7,32.8,30.06,SSW,202,3.1,4.3,54,0.00,,---,0.00,VWS V14.01,2013-11-09 06:01:00,
2013-11-09 00:06:00,48.7,32.8,30.06,South,180,2.9,3.1,54,0.00,,---,0.00,VWS V14.01,2013-11-09 06:06:00,
2013-11-09 00:12:00,48.4,33.0,30.06,SSW,202,2.7,4.0,55,0.00,,---,0.00,VWS V14.01,2013-11-09 06:12:00,
2013-11-09 00:17:00,48.4,33.0,30.06,South,180,3.4,8.1,55,0.00,,---,0.00,VWS V14.01,2013-11-09 06:17:00,
2013-11-09 00:22:00,48.2,32.8,30.06,South,180,2.0,9.4,55,0.00,,---,0.00,VWS V14.01,2013-11-09 06:22:00,
2013-11-09 00:27:00,48.2,33.3,30.06,South,180,7.4,7.4,56,0.00,,---,0.00,VWS V14.01,2013-11-09 06:27:00,
2013-11-09 00:33:00,48.0,33.1,30.06,SSW,202,1.3,5.6,56,0.00,,---,0.00,VWS V14.01,2013-11-09 06:33:00,
2013-11-09 00:38:00,47.7,33.2,30.06,SSW,202,2.5,4.9,57,0.00,,---,0.00,VWS V14.01,2013-11-09 06:38:00,
2013-11-09 00:43:00,47.5,33.0,30.06,SSW,202,3.1,7.4,57,0.00,,---,0.00,VWS V14.01,2013-11-09 06:43:00,
2013-11-09 00:49:00,47.5,33.5,30.06,SSW,202,3.8,3.8,58,0.00,,---,0.00,VWS V14.01,2013-11-09 06:49:00,
2013-11-09 00:54:00,47.3,33.3,30.06,SSW,202,2.9,3.1,58,0.00,,---,0.00,VWS V14.01,2013-11-09 06:54:00,
2013-11-09 00:59:00,47.1,33.1,30.06,South,180,6.0,6.0,58,0.00,,---,0.00,VWS V14.01,2013-11-09 06:59:00,
2013-11-09 01:04:00,47.1,33.5,30.06,South,180,4.9,4.9,59,0.00,,---,0.00,VWS V14.01,2013-11-09 07:04:00,
2013-11-09 01:09:00,46.8,33.2,30.06,SSE,158,3.8,3.8,59,0.00,,---,0.00,VWS V14.01,2013-11-09 07:09:00,
2013-11-09 01:15:00,46.8,33.6,30.06,South,180,2.7,5.6,60,0.00,,---,0.00,VWS V14.01,2013-11-09 07:15:00,
2013-11-09 01:20:00,46.6,33.5,30.06,SSW,202,2.7,4.7,60,0.00,,---,0.00,VWS V14.01,2013-11-09 07:20:00,
2013-11-09 01:25:00,46.6,33.5,30.06,SSW,202,2.0,3.4,60,0.00,,---,0.00,VWS V14.01,2013-11-09 07:25:00,
2013-11-09 01:30:00,46.6,33.5,30.06,SSW,202,2.9,4.9,60,0.00,,---,0.00,VWS V14.01,2013-11-09 07:30:00,
2013-11-09 01:36:00,46.4,33.3,30.06,South,180,2.7,4.0,60,0.00,,---,0.00,VWS V14.01,2013-11-09 07:36:00,
2013-11-09 01:42:00,46.2,33.5,30.06,South,180,3.6,3.6,61,0.00,,---,0.00,VWS V14.01,2013-11-09 07:42:00,
2013-11-09 01:47:00,46.0,33.4,30.06,South,180,1.3,3.1,61,0.00,,---,0.00,VWS V14.01,2013-11-09 07:47:00,
2013-11-09 01:53:00,45.9,33.2,30.06,South,180,2.7,3.1,61,0.00,,---,0.00,VWS V14.01,2013-11-09 07:53:00,
2013-11-09 01:58:00,45.5,33.2,30.06,SSW,202,5.6,5.6,62,0.00,,---,0.00,VWS V14.01,2013-11-09 07:58:00,
2013-11-09 02:04:00,45.5,33.7,30.06,South,180,2.7,3.4,63,0.00,,---,0.00,VWS V14.01,2013-11-09 08:04:00,
2013-11-09 02:09:00,45.3,33.1,30.06,SSW,202,2.7,2.7,62,0.00,,---,0.00,VWS V14.01,2013-11-09 08:09:00,
2013-11-09 02:14:00,45.1,33.7,30.06,South,180,3.1,3.1,64,0.00,,---,0.00,VWS V14.01,2013-11-09 08:14:00,
2013-11-09 02:19:00,45.0,33.5,30.06,South,180,1.3,2.5,64,0.00,,---,0.00,VWS V14.01,2013-11-09 08:19:00,
2013-11-09 02:25:00,44.8,33.4,30.06,South,180,2.0,2.0,64,0.00,,---,0.00,VWS V14.01,2013-11-09 08:25:00,
2013-11-09 02:30:00,44.6,33.6,30.06,SSE,158,1.6,2.0,65,0.00,,---,0.00,VWS V14.01,2013-11-09 08:30:00,
2013-11-09 02:35:00,44.4,33.8,30.06,South,180,1.6,3.6,66,0.00,,---,0.00,VWS V14.01,2013-11-09 08:35:00,
2013-11-09 02:40:00,44.2,33.6,30.06,SSE,158,4.9,4.9,66,0.00,,---,0.00,VWS V14.01,2013-11-09 08:40:00,
2013-11-09 02:46:00,44.1,33.8,30.06,South,180,2.0,2.5,67,0.00,,---,0.00,VWS V14.01,2013-11-09 08:46:00,
2013-11-09 02:51:00,44.1,33.8,30.06,SW,225,2.9,3.1,67,0.00,,---,0.00,VWS V14.01,2013-11-09 08:51:00,
2013-11-09 02:56:00,44.1,34.2,30.06,SSW,202,1.3,2.0,68,0.00,,---,0.00,VWS V14.01,2013-11-09 08:56:00,
2013-11-09 03:01:00,43.9,33.7,30.06,SSW,202,2.0,2.9,67,0.00,,---,0.00,VWS V14.01,2013-11-09 09:01:00,
2013-11-09 03:07:00,43.7,33.8,30.06,South,180,2.9,3.1,68,0.00,,---,0.00,VWS V14.01,2013-11-09 09:07:00,
2013-11-09 03:13:00,43.7,33.8,30.06,South,180,2.5,8.7,68,0.00,,---,0.00,VWS V14.01,2013-11-09 09:13:00,
2013-11-09 03:18:00,43.7,33.8,30.06,SSE,158,0.9,4.9,68,0.00,,---,0.00,VWS V14.01,2013-11-09 09:18:00,
2013-11-09 03:24:00,43.5,34.0,30.06,South,180,4.3,4.3,69,0.00,,---,0.00,VWS V14.01,2013-11-09 09:24:00,
2013-11-09 03:29:00,43.3,33.9,30.06,South,180,0.9,3.4,69,0.00,,---,0.00,VWS V14.01,2013-11-09 09:29:00,
2013-11-09 03:35:00,43.5,34.0,30.06,SSW,202,1.3,3.4,69,0.00,,---,0.00,VWS V14.01,2013-11-09 09:35:00,
2013-11-09 03:40:00,43.3,33.9,30.06,SSW,202,6.0,6.0,69,0.00,,---,0.00,VWS V14.01,2013-11-09 09:40:00,
2013-11-09 03:45:00,43.3,33.9,30.06,South,180,2.5,4.3,69,0.00,,---,0.00,VWS V14.01,2013-11-09 09:45:00,
2013-11-09 03:50:00,43.3,33.9,30.06,SSE,158,2.2,2.2,69,0.00,,---,0.00,VWS V14.01,2013-11-09 09:50:00,
2013-11-09 03:56:00,43.3,33.9,30.06,SSE,158,4.3,4.3,69,0.00,,---,0.00,VWS V14.01,2013-11-09 09:56:00,
2013-11-09 04:02:00,43.3,34.2,30.06,SSW,202,3.8,3.8,70,0.00,,---,0.00,VWS V14.01,2013-11-09 10:02:00,
2013-11-09 04:07:00,43.3,34.2,30.06,SSW,202,3.1,3.8,70,0.00,,---,0.00,VWS V14.01,2013-11-09 10:07:00,
2013-11-09 04:12:00,43.5,34.4,30.06,South,180,2.7,4.0,70,0.00,,---,0.00,VWS V14.01,2013-11-09 10:12:00,
2013-11-09 04:17:00,43.5,34.0,30.06,South,180,3.1,4.0,69,0.00,,---,0.00,VWS V14.01,2013-11-09 10:17:00,
2013-11-09 04:22:00,43.5,34.0,30.06,SW,225,1.3,2.2,69,0.00,,---,0.00,VWS V14.01,2013-11-09 10:22:00,
2013-11-09 04:27:00,43.3,34.2,30.09,SSW,202,1.1,2.9,70,0.00,,---,0.00,VWS V14.01,2013-11-09 10:27:00,
2013-11-09 04:32:00,43.3,34.2,30.09,South,180,1.6,1.6,70,0.00,,---,0.00,VWS V14.01,2013-11-09 10:32:00,
2013-11-09 04:38:00,43.2,34.4,30.09,South,180,2.2,2.5,71,0.00,,---,0.00,VWS V14.01,2013-11-09 10:38:00,
2013-11-09 04:43:00,43.2,34.4,30.09,SSW,202,2.7,3.4,71,0.00,,---,0.00,VWS V14.01,2013-11-09 10:43:00,
2013-11-09 04:48:00,43.0,34.2,30.09,South,180,2.9,2.9,71,0.00,,---,0.00,VWS V14.01,2013-11-09 10:48:00,
2013-11-09 04:53:00,42.8,34.4,30.09,South,180,2.9,3.1,72,0.00,,---,0.00,VWS V14.01,2013-11-09 10:53:00,
2013-11-09 04:59:00,42.6,34.6,30.09,South,180,1.1,2.9,73,0.00,,---,0.00,VWS V14.01,2013-11-09 10:59:00,
2013-11-09 05:04:00,42.4,34.4,30.09,South,180,2.9,2.9,73,0.00,,---,0.00,VWS V14.01,2013-11-09 11:04:00,
2013-11-09 05:09:00,42.3,34.6,30.12,SSE,158,2.5,2.5,74,0.00,,---,0.00,VWS V14.01,2013-11-09 11:09:00,
2013-11-09 05:15:00,41.9,34.2,30.12,South,180,0.0,0.0,74,0.00,,---,0.00,VWS V14.01,2013-11-09 11:15:00,
2013-11-09 05:20:00,41.5,33.9,30.12,South,180,0.0,2.5,74,0.00,,---,0.00,VWS V14.01,2013-11-09 11:20:00,
2013-11-09 05:25:00,41.2,33.2,30.09,South,180,0.0,0.0,73,0.00,,---,0.00,VWS V14.01,2013-11-09 11:25:00,
2013-11-09 05:30:00,40.8,33.2,30.09,South,180,0.0,0.0,74,0.00,,---,0.00,VWS V14.01,2013-11-09 11:30:00,
2013-11-09 05:35:00,40.3,32.7,30.09,South,180,0.0,0.0,74,0.00,,---,0.00,VWS V14.01,2013-11-09 11:35:00,
2013-11-09 05:41:00,39.9,32.3,30.09,South,180,0.0,0.0,74,0.00,,---,0.00,VWS V14.01,2013-11-09 11:41:00,
2013-11-09 05:46:00,39.6,32.3,30.09,South,180,0.0,0.0,75,0.00,,---,0.00,VWS V14.01,2013-11-09 11:46:00,
2013-11-09 05:51:00,39.4,32.1,30.09,South,180,0.0,0.0,75,0.00,,---,0.00,VWS V14.01,2013-11-09 11:51:00,
2013-11-09 05:56:00,39.0,32.1,30.09,South,180,0.0,0.0,76,0.00,,---,0.00,VWS V14.01,2013-11-09 11:56:00,
2013-11-09 06:02:00,39.4,33.7,30.09,South,180,0.0,0.9,80,0.00,,---,0.00,VWS V14.01,2013-11-09 12:02:00,
2013-11-09 06:07:00,39.4,34.0,30.09,South,180,0.0,0.0,81,0.00,,---,0.00,VWS V14.01,2013-11-09 12:07:00,
2013-11-09 06:12:00,39.2,33.6,30.09,SSE,158,0.0,0.0,80,0.00,,---,0.00,VWS V14.01,2013-11-09 12:12:00,
2013-11-09 06:17:00,39.0,33.4,30.09,SSE,158,0.0,0.0,80,0.00,,---,0.00,VWS V14.01,2013-11-09 12:17:00,
2013-11-09 06:23:00,39.2,34.2,30.09,SSE,158,0.0,0.0,82,0.00,,---,0.00,VWS V14.01,2013-11-09 12:23:00,
2013-11-09 06:28:00,39.4,35.0,30.12,South,180,0.0,1.3,84,0.00,,---,0.00,VWS V14.01,2013-11-09 12:28:00,
2013-11-09 06:33:00,39.4,35.0,30.12,SSE,158,0.0,0.9,84,0.00,,---,0.00,VWS V14.01,2013-11-09 12:33:00,
2013-11-09 06:38:00,39.4,35.2,30.12,SSE,158,2.5,2.5,85,0.00,,---,0.00,VWS V14.01,2013-11-09 12:38:00,
2013-11-09 06:44:00,39.4,35.0,30.12,SSE,158,0.0,0.0,84,0.00,,---,0.00,VWS V14.01,2013-11-09 12:44:00,
2013-11-09 06:49:00,39.2,34.5,30.12,SSE,158,0.0,0.0,83,0.00,,---,0.00,VWS V14.01,2013-11-09 12:49:00,
2013-11-09 06:54:00,38.8,34.1,30.15,SSE,158,0.0,0.0,83,0.00,,---,0.00,VWS V14.01,2013-11-09 12:54:00,
2013-11-09 07:00:00,38.7,33.7,30.15,SSE,158,0.0,0.0,82,0.00,,---,0.00,VWS V14.01,2013-11-09 13:00:00,
2013-11-09 07:05:00,38.7,33.7,30.15,SSE,158,0.0,0.0,82,0.00,,---,0.00,VWS V14.01,2013-11-09 13:05:00,
2013-11-09 07:10:00,38.5,33.5,30.15,SSE,158,0.0,0.9,82,0.00,,---,0.00,VWS V14.01,2013-11-09 13:10:00,
2013-11-09 07:15:00,38.8,34.1,30.15,SSE,158,0.0,0.0,83,0.00,,---,0.00,VWS V14.01,2013-11-09 13:15:00,
2013-11-09 07:20:00,39.4,34.7,30.15,SSE,158,2.7,2.7,83,0.00,,---,0.00,VWS V14.01,2013-11-09 13:20:00,
2013-11-09 07:26:00,40.8,36.7,30.15,South,180,0.0,1.1,85,0.00,,---,0.00,VWS V14.01,2013-11-09 13:26:00,
2013-11-09 07:31:00,41.9,37.7,30.15,South,180,0.0,1.1,85,0.00,,---,0.00,VWS V14.01,2013-11-09 13:31:00,
2013-11-09 07:36:00,41.9,37.7,30.15,South,180,1.1,1.1,85,0.00,,---,0.00,VWS V14.01,2013-11-09 13:36:00,
2013-11-09 07:41:00,41.9,37.7,30.12,South,180,0.9,0.9,85,0.00,,---,0.00,VWS V14.01,2013-11-09 13:41:00,
2013-11-09 07:47:00,44.8,38.7,30.12,SSW,202,0.0,0.9,79,0.00,,---,0.00,VWS V14.01,2013-11-09 13:47:00,
2013-11-09 07:53:00,45.9,38.7,30.12,South,180,2.0,2.0,76,0.00,,---,0.00,VWS V14.01,2013-11-09 13:53:00,
2013-11-09 07:58:00,46.6,38.4,30.15,South,180,0.0,2.7,73,0.00,,---,0.00,VWS V14.01,2013-11-09 13:58:00,
2013-11-09 08:04:00,47.3,38.4,30.15,SSW,202,0.0,1.3,71,0.00,,---,0.00,VWS V14.01,2013-11-09 14:04:00,
2013-11-09 08:09:00,48.2,38.9,30.15,SSW,202,0.0,0.9,70,0.00,,---,0.00,VWS V14.01,2013-11-09 14:09:00,
2013-11-09 08:15:00,48.6,37.3,30.15,SSE,158,1.1,3.4,65,0.00,,---,0.00,VWS V14.01,2013-11-09 14:15:00,
2013-11-09 08:20:00,48.7,36.7,30.15,SSW,202,3.6,4.3,63,0.00,,---,0.00,VWS V14.01,2013-11-09 14:20:00,
2013-11-09 08:25:00,49.1,36.7,30.15,South,180,2.7,4.0,62,0.00,,---,0.00,VWS V14.01,2013-11-09 14:25:00,
2013-11-09 08:30:00,50.0,37.1,30.15,SW,225,2.2,2.5,61,0.00,,---,0.00,VWS V14.01,2013-11-09 14:30:00,
2013-11-09 08:36:00,50.5,36.8,30.15,South,180,2.7,2.7,59,0.00,,---,0.00,VWS V14.01,2013-11-09 14:36:00,
2013-11-09 08:41:00,51.3,37.4,30.18,SSW,202,0.9,2.7,59,0.00,,---,0.00,VWS V14.01,2013-11-09 14:41:00,
2013-11-09 08:46:00,51.4,36.7,30.18,South,180,2.2,2.7,57,0.00,,---,0.00,VWS V14.01,2013-11-09 14:46:00,
2013-11-09 08:51:00,51.8,37.1,30.18,South,180,1.6,3.8,57,0.00,,---,0.00,VWS V14.01,2013-11-09 14:51:00,
2013-11-09 08:57:00,53.2,38.0,30.18,SSE,158,2.2,2.2,56,0.00,,---,0.00,VWS V14.01,2013-11-09 14:57:00,
2013-11-09 09:02:00,53.6,37.4,30.18,SSE,158,2.5,3.6,54,0.00,,---,0.00,VWS V14.01,2013-11-09 15:02:00,
2013-11-09 09:07:00,53.4,37.2,30.18,South,180,3.1,3.1,54,0.00,,---,0.00,VWS V14.01,2013-11-09 15:07:00,
2013-11-09 09:12:00,54.1,37.4,30.21,SSW,202,2.5,3.1,53,0.00,,---,0.00,VWS V14.01,2013-11-09 15:12:00,
2013-11-09 09:18:00,54.5,37.7,30.21,South,180,0.9,0.9,53,0.00,,---,0.00,VWS V14.01,2013-11-09 15:18:00,
2013-11-09 09:23:00,55.9,39.1,30.21,SSW,202,2.9,2.9,53,0.00,,---,0.00,VWS V14.01,2013-11-09 15:23:00,
2013-11-09 09:28:00,56.7,39.2,30.21,South,180,0.0,3.1,52,0.00,,---,0.00,VWS V14.01,2013-11-09 15:28:00,
2013-11-09 09:33:00,57.2,39.2,30.21,WSW,248,0.0,0.0,51,0.00,,---,0.00,VWS V14.01,2013-11-09 15:33:00,
2013-11-09 09:39:00,58.5,39.9,30.21,WNW,292,0.0,2.5,50,0.00,,---,0.00,VWS V14.01,2013-11-09 15:39:00,
2013-11-09 09:44:00,58.8,40.2,30.21,WNW,292,0.0,0.0,50,0.00,,---,0.00,VWS V14.01,2013-11-09 15:44:00,
2013-11-09 09:49:00,59.5,40.9,30.21,WNW,292,0.0,0.0,50,0.00,,---,0.00,VWS V14.01,2013-11-09 15:49:00,
2013-11-09 09:54:00,59.7,40.5,30.21,SW,225,0.0,0.0,49,0.00,,---,0.00,VWS V14.01,2013-11-09 15:54:00,
2013-11-09 10:00:00,60.4,40.7,30.21,West,270,0.0,0.0,48,0.00,,---,0.00,VWS V14.01,2013-11-09 16:00:00,
2013-11-09 10:05:00,61.0,40.6,30.21,WNW,292,0.0,0.9,47,0.00,,---,0.00,VWS V14.01,2013-11-09 16:05:00,
2013-11-09 10:10:00,61.7,41.3,30.21,NE,45,0.9,0.9,47,0.00,,---,0.00,VWS V14.01,2013-11-09 16:10:00,
2013-11-09 10:15:00,61.7,40.7,30.21,North,0,0.0,0.0,46,0.00,,---,0.00,VWS V14.01,2013-11-09 16:15:00,
2013-11-09 10:21:00,62.2,41.2,30.21,NNW,338,0.0,2.7,46,0.00,,---,0.00,VWS V14.01,2013-11-09 16:21:00,
2013-11-09 10:26:00,61.9,40.9,30.21,ENE,68,0.0,0.0,46,0.00,,---,0.00,VWS V14.01,2013-11-09 16:26:00,
2013-11-09 10:32:00,62.2,41.2,30.21,East,90,0.9,0.9,46,0.00,,---,0.00,VWS V14.01,2013-11-09 16:32:00,
2013-11-09 10:37:00,62.8,41.7,30.21,NNW,338,0.0,0.0,46,0.00,,---,0.00,VWS V14.01,2013-11-09 16:37:00,
2013-11-09 10:42:00,62.8,41.2,30.18,North,0,0.0,1.6,45,0.00,,---,0.00,VWS V14.01,2013-11-09 16:42:00,
2013-11-09 10:47:00,63.1,41.5,30.18,NNE,22,0.0,0.9,45,0.00,,---,0.00,VWS V14.01,2013-11-09 16:47:00,
2013-11-09 10:52:00,62.8,41.2,30.18,NE,45,2.7,3.6,45,0.00,,---,0.00,VWS V14.01,2013-11-09 16:52:00,
2013-11-09 10:57:00,62.6,41.0,30.21,NE,45,4.9,4.9,45,0.00,,---,0.00,VWS V14.01,2013-11-09 16:57:00,
2013-11-09 11:03:00,62.4,40.8,30.21,NE,45,3.6,3.6,45,0.00,,---,0.00,VWS V14.01,2013-11-09 17:03:00,
2013-11-09 11:08:00,62.4,40.8,30.21,SE,135,0.0,2.0,45,0.00,,---,0.00,VWS V14.01,2013-11-09 17:08:00,
2013-11-09 11:13:00,62.2,40.7,30.21,East,90,3.6,3.8,45,0.00,,---,0.00,VWS V14.01,2013-11-09 17:13:00,
2013-11-09 11:18:00,62.4,40.8,30.21,East,90,4.7,6.0,45,0.00,,---,0.00,VWS V14.01,2013-11-09 17:18:00,
2013-11-09 11:24:00,63.1,41.5,30.21,SSE,158,2.0,2.5,45,0.00,,---,0.00,VWS V14.01,2013-11-09 17:24:00,
2013-11-09 11:29:00,62.8,40.6,30.21,NE,45,0.0,4.0,44,0.00,,---,0.00,VWS V14.01,2013-11-09 17:29:00,
2013-11-09 11:34:00,62.4,40.8,30.21,East,90,7.4,7.4,45,0.00,,---,0.00,VWS V14.01,2013-11-09 17:34:00,
2013-11-09 11:40:00,62.8,40.6,30.21,ENE,68,7.4,7.4,44,0.00,,---,0.00,VWS V14.01,2013-11-09 17:40:00,
2013-11-09 11:45:00,62.1,39.9,30.21,East,90,6.5,7.4,44,0.00,,---,0.00,VWS V14.01,2013-11-09 17:45:00,
2013-11-09 11:50:00,62.8,40.6,30.21,ENE,68,2.9,4.3,44,0.00,,---,0.00,VWS V14.01,2013-11-09 17:50:00,
2013-11-09 11:55:00,63.0,40.7,30.21,ESE,112,4.0,5.4,44,0.00,,---,0.00,VWS V14.01,2013-11-09 17:55:00,
2013-11-09 12:00:00,63.7,41.4,30.21,ENE,68,3.4,5.4,44,0.00,,---,0.00,VWS V14.01,2013-11-09 18:00:00,
2013-11-09 12:06:00,64.0,41.7,30.21,NE,45,2.9,2.9,44,0.00,,---,0.00,VWS V14.01,2013-11-09 18:06:00,
2013-11-09 12:11:00,64.8,41.8,30.21,ENE,68,3.8,4.3,43,0.00,,---,0.00,VWS V14.01,2013-11-09 18:11:00,
2013-11-09 12:16:00,64.9,41.9,30.21,NE,45,2.7,4.9,43,0.00,,---,0.00,VWS V14.01,2013-11-09 18:16:00,
2013-11-09 12:22:00,64.9,41.3,30.21,East,90,4.7,6.0,42,0.00,,---,0.00,VWS V14.01,2013-11-09 18:22:00,
2013-11-09 12:27:00,64.4,40.8,30.21,ENE,68,6.3,10.5,42,0.00,,---,0.00,VWS V14.01,2013-11-09 18:27:00,
2013-11-09 12:33:00,64.9,40.7,30.21,ENE,68,4.0,8.7,41,0.00,,---,0.00,VWS V14.01,2013-11-09 18:33:00,
2013-11-09 12:38:00,65.1,40.9,30.21,ENE,68,6.3,7.8,41,0.00,,---,0.00,VWS V14.01,2013-11-09 18:38:00,
2013-11-09 12:43:00,65.1,40.9,30.21,NE,45,6.5,8.7,41,0.00,,---,0.00,VWS V14.01,2013-11-09 18:43:00,
2013-11-09 12:48:00,65.1,40.9,30.21,NE,45,3.8,4.9,41,0.00,,---,0.00,VWS V14.01,2013-11-09 18:48:00,
2013-11-09 12:53:00,64.9,40.1,30.21,NNE,22,6.0,8.5,40,0.00,,---,0.00,VWS V14.01,2013-11-09 18:53:00,
2013-11-09 12:58:00,65.1,40.2,30.21,ENE,68,6.9,7.8,40,0.00,,---,0.00,VWS V14.01,2013-11-09 18:58:00,
2013-11-09 13:04:00,64.9,40.1,30.21,SSE,158,4.0,5.4,40,0.00,,---,0.00,VWS V14.01,2013-11-09 19:04:00,
2013-11-09 13:09:00,65.3,40.4,30.21,ESE,112,5.8,8.1,40,0.00,,---,0.00,VWS V14.01,2013-11-09 19:09:00,
2013-11-09 13:14:00,65.1,40.2,30.21,East,90,7.6,7.8,40,0.00,,---,0.00,VWS V14.01,2013-11-09 19:14:00,
2013-11-09 13:19:00,65.5,40.5,30.21,SSE,158,2.2,2.9,40,0.00,,---,0.00,VWS V14.01,2013-11-09 19:19:00,
2013-11-09 13:24:00,66.2,40.5,30.21,North,0,4.0,6.0,39,0.00,,---,0.00,VWS V14.01,2013-11-09 19:24:00,
2013-11-09 13:30:00,66.4,41.3,30.21,SE,135,7.8,7.8,40,0.00,,---,0.00,VWS V14.01,2013-11-09 19:30:00,
2013-11-09 13:35:00,66.6,40.9,30.21,East,90,10.3,10.3,39,0.00,,---,0.00,VWS V14.01,2013-11-09 19:35:00,
2013-11-09 13:40:00,66.6,40.9,30.21,NE,45,6.3,6.3,39,0.00,,---,0.00,VWS V14.01,2013-11-09 19:40:00,
2013-11-09 13:45:00,66.7,41.0,30.21,ESE,112,1.3,3.4,39,0.00,,---,0.00,VWS V14.01,2013-11-09 19:45:00,
2013-11-09 13:50:00,66.2,40.5,30.21,East,90,5.6,10.1,39,0.00,,---,0.00,VWS V14.01,2013-11-09 19:50:00,
2013-11-09 13:56:00,66.9,41.2,30.21,East,90,6.9,6.9,39,0.00,,---,0.00,VWS V14.01,2013-11-09 19:56:00,
2013-11-09 14:01:00,67.3,41.5,30.21,SSE,158,6.0,6.0,39,0.00,,---,0.00,VWS V14.01,2013-11-09 20:01:00,
2013-11-09 14:06:00,67.5,41.7,30.21,SE,135,5.4,5.4,39,0.00,,---,0.00,VWS V14.01,2013-11-09 20:06:00,
2013-11-09 14:12:00,67.3,40.8,30.21,SE,135,5.6,7.8,38,0.00,,---,0.00,VWS V14.01,2013-11-09 20:12:00,
2013-11-09 14:17:00,67.5,41.0,30.21,ENE,68,1.1,4.9,38,0.00,,---,0.00,VWS V14.01,2013-11-09 20:17:00,
2013-11-09 14:22:00,67.5,40.3,30.21,East,90,3.4,6.7,37,0.00,,---,0.00,VWS V14.01,2013-11-09 20:22:00,
2013-11-09 14:27:00,67.8,40.6,30.21,ENE,68,6.0,7.6,37,0.00,,---,0.00,VWS V14.01,2013-11-09 20:27:00,
2013-11-09 14:33:00,67.5,40.3,30.21,SSE,158,4.0,7.8,37,0.00,,---,0.00,VWS V14.01,2013-11-09 20:33:00,
2013-11-09 14:38:00,67.3,40.1,30.21,SE,135,3.8,6.0,37,0.00,,---,0.00,VWS V14.01,2013-11-09 20:38:00,
2013-11-09 14:43:00,67.3,40.1,30.21,SE,135,7.2,7.2,37,0.00,,---,0.00,VWS V14.01,2013-11-09 20:43:00,
2013-11-09 14:49:00,67.1,40.7,30.21,East,90,4.3,5.4,38,0.00,,---,0.00,VWS V14.01,2013-11-09 20:49:00,
2013-11-09 14:54:00,66.7,39.7,30.21,SE,135,5.8,8.5,37,0.00,,---,0.00,VWS V14.01,2013-11-09 20:54:00,
2013-11-09 14:59:00,66.4,40.0,30.21,East,90,7.8,9.2,38,0.00,,---,0.00,VWS V14.01,2013-11-09 20:59:00,
2013-11-09 15:04:00,66.2,39.9,30.21,SSE,158,7.8,7.8,38,0.00,,---,0.00,VWS V14.01,2013-11-09 21:04:00,
2013-11-09 15:09:00,66.4,40.0,30.21,ESE,112,5.4,5.4,38,0.00,,---,0.00,VWS V14.01,2013-11-09 21:09:00,
2013-11-09 15:15:00,66.6,40.2,30.21,East,90,6.0,6.5,38,0.00,,---,0.00,VWS V14.01,2013-11-09 21:15:00,
2013-11-09 15:20:00,66.4,40.0,30.21,East,90,5.6,8.1,38,0.00,,---,0.00,VWS V14.01,2013-11-09 21:20:00,
2013-11-09 15:25:00,66.9,40.5,30.21,SSE,158,2.0,2.2,38,0.00,,---,0.00,VWS V14.01,2013-11-09 21:25:00,
2013-11-09 15:30:00,67.5,41.0,30.21,ENE,68,5.6,6.0,38,0.00,,---,0.00,VWS V14.01,2013-11-09 21:30:00,
2013-11-09 15:36:00,67.1,40.7,30.21,South,180,3.8,4.0,38,0.00,,---,0.00,VWS V14.01,2013-11-09 21:36:00,
2013-11-09 15:42:00,66.9,39.8,30.21,SE,135,3.1,3.1,37,0.00,,---,0.00,VWS V14.01,2013-11-09 21:42:00,
2013-11-09 15:47:00,66.9,39.8,30.21,SE,135,4.7,5.6,37,0.00,,---,0.00,VWS V14.01,2013-11-09 21:47:00,
2013-11-09 15:53:00,66.6,39.5,30.21,ESE,112,6.3,6.3,37,0.00,,---,0.00,VWS V14.01,2013-11-09 21:53:00,
2013-11-09 15:58:00,66.6,39.5,30.24,ESE,112,2.9,6.0,37,0.00,,---,0.00,VWS V14.01,2013-11-09 21:58:00,
2013-11-09 16:04:00,66.4,38.6,30.24,SE,135,5.4,5.8,36,0.00,,---,0.00,VWS V14.01,2013-11-09 22:04:00,
2013-11-09 16:09:00,66.0,39.0,30.21,ESE,112,3.4,3.4,37,0.00,,---,0.00,VWS V14.01,2013-11-09 22:09:00,
2013-11-09 16:14:00,65.8,38.2,30.21,SSE,158,5.6,5.6,36,0.00,,---,0.00,VWS V14.01,2013-11-09 22:14:00,
2013-11-09 16:20:00,65.5,37.8,30.21,ENE,68,3.6,6.3,36,0.00,,---,0.00,VWS V14.01,2013-11-09 22:20:00,
2013-11-09 16:25:00,64.9,37.4,30.21,ESE,112,2.5,5.4,36,0.00,,---,0.00,VWS V14.01,2013-11-09 22:25:00,
2013-11-09 16:30:00,64.4,36.2,30.21,NE,45,5.6,6.3,35,0.00,,---,0.00,VWS V14.01,2013-11-09 22:30:00,
2013-11-09 16:35:00,64.0,36.6,30.21,ENE,68,2.0,7.4,36,0.00,,---,0.00,VWS V14.01,2013-11-09 22:35:00,
2013-11-09 16:40:00,64.0,36.6,30.21,ENE,68,3.6,5.6,36,0.00,,---,0.00,VWS V14.01,2013-11-09 22:40:00,
2013-11-09 16:46:00,63.9,36.4,30.21,NE,45,4.7,5.6,36,0.00,,---,0.00,VWS V14.01,2013-11-09 22:46:00,
2013-11-09 16:51:00,63.1,35.8,30.21,East,90,7.2,7.2,36,0.00,,---,0.00,VWS V14.01,2013-11-09 22:51:00,
2013-11-09 16:57:00,62.4,35.1,30.21,ENE,68,3.8,6.3,36,0.00,,---,0.00,VWS V14.01,2013-11-09 22:57:00,
2013-11-09 17:02:00,62.1,35.5,30.21,ENE,68,4.3,5.6,37,0.00,,---,0.00,VWS V14.01,2013-11-09 23:02:00,
2013-11-09 17:07:00,61.7,35.2,30.21,ESE,112,6.5,7.2,37,0.00,,---,0.00,VWS V14.01,2013-11-09 23:07:00,
2013-11-09 17:13:00,61.2,34.7,30.21,East,90,2.9,3.1,37,0.00,,---,0.00,VWS V14.01,2013-11-09 23:13:00,
2013-11-09 17:18:00,60.6,34.9,30.21,East,90,2.0,3.1,38,0.00,,---,0.00,VWS V14.01,2013-11-09 23:18:00,
2013-11-09 17:24:00,60.1,34.4,30.24,East,90,2.2,4.0,38,0.00,,---,0.00,VWS V14.01,2013-11-09 23:24:00,
2013-11-09 17:29:00,59.5,33.9,30.24,East,90,0.0,2.7,38,0.00,,---,0.00,VWS V14.01,2013-11-09 23:29:00,
2013-11-09 17:35:00,59.2,34.3,30.24,East,90,2.5,2.9,39,0.00,,---,0.00,VWS V14.01,2013-11-09 23:35:00,
2013-11-09 17:40:00,58.8,33.9,30.24,East,90,3.1,3.1,39,0.00,,---,0.00,VWS V14.01,2013-11-09 23:40:00,
2013-11-09 17:45:00,58.3,34.1,30.24,East,90,2.5,3.4,40,0.00,,---,0.00,VWS V14.01,2013-11-09 23:45:00,
2013-11-09 17:51:00,57.9,33.8,30.24,ENE,68,1.6,3.8,40,0.00,,---,0.00,VWS V14.01,2013-11-09 23:51:00,
2013-11-09 17:56:00,57.7,33.6,30.24,East,90,1.6,2.7,40,0.00,,---,0.00,VWS V14.01,2013-11-09 23:56:00,
2013-11-09 18:02:00,57.4,33.9,30.24,East,90,1.1,3.1,41,0.00,,---,0.00,VWS V14.01,2013-11-10 00:02:00,
2013-11-09 18:07:00,56.8,34.0,30.24,East,90,2.0,2.0,42,0.00,,---,0.00,VWS V14.01,2013-11-10 00:07:00,
2013-11-09 18:13:00,56.7,33.8,30.24,East,90,0.0,3.1,42,0.00,,---,0.00,VWS V14.01,2013-11-10 00:13:00,
2013-11-09 18:18:00,56.3,34.1,30.24,East,90,0.0,1.1,43,0.00,,---,0.00,VWS V14.01,2013-11-10 00:18:00,
2013-11-09 18:24:00,55.9,33.8,30.24,East,90,0.0,0.0,43,0.00,,---,0.00,VWS V14.01,2013-11-10 00:24:00,
2013-11-09 18:29:00,55.6,34.0,30.24,East,90,0.0,0.9,44,0.00,,---,0.00,VWS V14.01,2013-11-10 00:29:00,
2013-11-09 18:35:00,55.2,34.3,30.24,East,90,0.0,0.0,45,0.00,,---,0.00,VWS V14.01,2013-11-10 00:35:00,
2013-11-09 18:40:00,55.0,34.1,30.24,ESE,112,0.0,0.0,45,0.00,,---,0.00,VWS V14.01,2013-11-10 00:40:00,
2013-11-09 18:45:00,54.9,34.5,30.24,ESE,112,1.6,2.0,46,0.00,,---,0.00,VWS V14.01,2013-11-10 00:45:00,
2013-11-09 18:50:00,54.7,34.3,30.24,ESE,112,2.0,2.0,46,0.00,,---,0.00,VWS V14.01,2013-11-10 00:50:00,
2013-11-09 18:56:00,54.7,34.3,30.27,ESE,112,0.0,0.0,46,0.00,,---,0.00,VWS V14.01,2013-11-10 00:56:00,
2013-11-09 19:02:00,53.8,34.0,30.27,ESE,112,0.0,0.0,47,0.00,,---,0.00,VWS V14.01,2013-11-10 01:02:00,
2013-11-09 19:07:00,53.4,34.2,30.27,ESE,112,0.0,0.0,48,0.00,,---,0.00,VWS V14.01,2013-11-10 01:07:00,
2013-11-09 19:13:00,52.7,34.1,30.27,ESE,112,0.0,0.0,49,0.00,,---,0.00,VWS V14.01,2013-11-10 01:13:00,
2013-11-09 19:18:00,52.2,33.6,30.27,ESE,112,0.0,0.0,49,0.00,,---,0.00,VWS V14.01,2013-11-10 01:18:00,
2013-11-09 19:24:00,51.4,33.4,30.27,ESE,112,0.0,0.0,50,0.00,,---,0.00,VWS V14.01,2013-11-10 01:24:00,
2013-11-09 19:30:00,50.7,32.8,30.27,ESE,112,0.0,0.0,50,0.00,,---,0.00,VWS V14.01,2013-11-10 01:30:00,
2013-11-09 19:35:00,50.4,32.9,30.27,ESE,112,0.0,0.0,51,0.00,,---,0.00,VWS V14.01,2013-11-10 01:35:00,
2013-11-09 19:41:00,49.8,33.4,30.27,ENE,68,0.0,0.0,53,0.00,,---,0.00,VWS V14.01,2013-11-10 01:41:00,
2013-11-09 19:46:00,49.8,33.9,30.27,ENE,68,0.0,0.0,54,0.00,,---,0.00,VWS V14.01,2013-11-10 01:46:00,
2013-11-09 19:52:00,49.6,33.7,30.27,ENE,68,0.0,0.0,54,0.00,,---,0.00,VWS V14.01,2013-11-10 01:52:00,
2013-11-09 19:58:00,49.1,33.7,30.27,ENE,68,0.0,0.0,55,0.00,,---,0.00,VWS V14.01,2013-11-10 01:58:00,
2013-11-09 20:03:00,48.6,33.6,30.27,ENE,68,0.0,0.0,56,0.00,,---,0.00,VWS V14.01,2013-11-10 02:03:00,
2013-11-09 20:09:00,48.6,34.0,30.27,North,0,0.0,0.0,57,0.00,,---,0.00,VWS V14.01,2013-11-10 02:09:00,
2013-11-09 20:15:00,48.6,34.5,30.27,North,0,0.0,0.0,58,0.00,,---,0.00,VWS V14.01,2013-11-10 02:15:00,
2013-11-09 20:20:00,48.4,34.3,30.27,North,0,0.0,0.0,58,0.00,,---,0.00,VWS V14.01,2013-11-10 02:20:00,
2013-11-09 20:25:00,48.0,34.4,30.27,North,0,0.0,0.0,59,0.00,,---,0.00,VWS V14.01,2013-11-10 02:25:00,
2013-11-09 20:30:00,48.0,35.2,30.27,North,0,0.0,0.0,61,0.00,,---,0.00,VWS V14.01,2013-11-10 02:30:00,
2013-11-09 20:36:00,47.3,35.0,30.27,North,0,0.0,0.0,62,0.00,,---,0.00,VWS V14.01,2013-11-10 02:36:00,
2013-11-09 20:41:00,47.3,35.0,30.27,North,0,0.0,0.0,62,0.00,,---,0.00,VWS V14.01,2013-11-10 02:41:00,
2013-11-09 20:47:00,47.3,35.4,30.27,North,0,0.0,0.0,63,0.00,,---,0.00,VWS V14.01,2013-11-10 02:47:00,
2013-11-09 20:52:00,47.3,35.8,30.27,NE,45,0.0,0.0,64,0.00,,---,0.00,VWS V14.01,2013-11-10 02:52:00,
2013-11-09 20:57:00,47.3,35.4,30.30,NE,45,0.0,0.0,63,0.00,,---,0.00,VWS V14.01,2013-11-10 02:57:00,
2013-11-09 21:02:00,47.1,35.2,30.30,NE,45,0.0,0.0,63,0.00,,---,0.00,VWS V14.01,2013-11-10 03:02:00,
2013-11-09 21:08:00,46.9,35.8,30.30,NE,45,0.0,0.0,65,0.00,,---,0.00,VWS V14.01,2013-11-10 03:08:00,
2013-11-09 21:13:00,46.6,35.8,30.30,NE,45,0.0,0.0,66,0.00,,---,0.00,VWS V14.01,2013-11-10 03:13:00,
2013-11-09 21:19:00,46.2,35.9,30.30,NE,45,0.0,0.0,67,0.00,,---,0.00,VWS V14.01,2013-11-10 03:19:00,
2013-11-09 21:24:00,45.7,35.4,30.30,NE,45,0.0,0.0,67,0.00,,---,0.00,VWS V14.01,2013-11-10 03:24:00,
2013-11-09 21:30:00,45.1,35.6,30.30,NE,45,0.0,0.0,69,0.00,,---,0.00,VWS V14.01,2013-11-10 03:30:00,
2013-11-09 21:36:00,44.8,36.0,30.30,NE,45,0.0,0.0,71,0.00,,---,0.00,VWS V14.01,2013-11-10 03:36:00,
2013-11-09 21:41:00,44.6,35.4,30.30,NE,45,0.0,0.0,70,0.00,,---,0.00,VWS V14.01,2013-11-10 03:41:00,
2013-11-09 21:47:00,44.2,35.5,30.30,NE,45,0.0,0.0,71,0.00,,---,0.00,VWS V14.01,2013-11-10 03:47:00,
2013-11-09 21:53:00,44.1,36.3,30.30,NE,45,0.0,0.0,74,0.00,,---,0.00,VWS V14.01,2013-11-10 03:53:00,
2013-11-09 21:58:00,43.7,35.3,30.33,NE,45,0.0,0.0,72,0.00,,---,0.00,VWS V14.01,2013-11-10 03:58:00,
2013-11-09 22:04:00,43.5,36.1,30.33,NE,45,0.0,0.0,75,0.00,,---,0.00,VWS V14.01,2013-11-10 04:04:00,
2013-11-09 22:09:00,43.3,35.6,30.33,NE,45,0.0,0.0,74,0.00,,---,0.00,VWS V14.01,2013-11-10 04:09:00,
2013-11-09 22:15:00,43.2,36.1,30.33,NE,45,0.0,0.0,76,0.00,,---,0.00,VWS V14.01,2013-11-10 04:15:00,
2013-11-09 22:20:00,43.0,36.3,30.33,NE,45,0.0,0.0,77,0.00,,---,0.00,VWS V14.01,2013-11-10 04:20:00,
2013-11-09 22:26:00,42.8,35.8,30.33,NE,45,0.0,0.0,76,0.00,,---,0.00,VWS V14.01,2013-11-10 04:26:00,
2013-11-09 22:32:00,42.6,36.2,30.33,NE,45,0.0,0.0,78,0.00,,---,0.00,VWS V14.01,2013-11-10 04:32:00,
2013-11-09 22:37:00,42.4,36.4,30.33,NE,45,0.0,0.0,79,0.00,,---,0.00,VWS V14.01,2013-11-10 04:37:00,
2013-11-09 22:43:00,42.3,35.9,30.33,NE,45,0.0,0.0,78,0.00,,---,0.00,VWS V14.01,2013-11-10 04:43:00,
2013-11-09 22:48:00,42.1,35.4,30.33,NE,45,0.0,0.0,77,0.00,,---,0.00,VWS V14.01,2013-11-10 04:48:00,
2013-11-09 22:54:00,42.1,35.4,30.33,NE,45,0.0,0.0,77,0.00,,---,0.00,VWS V14.01,2013-11-10 04:54:00,
2013-11-09 23:00:00,42.1,36.4,30.33,NE,45,0.0,0.0,80,0.00,,---,0.00,VWS V14.01,2013-11-10 05:00:00,
2013-11-09 23:01:00,41.9,36.2,30.33,NE,45,0.0,0.0,80,0.00,,---,0.00,VWS V14.01,2013-11-10 05:01:00,
2013-11-09 23:02:00,41.9,36.2,30.33,NE,45,0.0,0.0,80,0.00,,---,0.00,VWS V14.01,2013-11-10 05:02:00,
2013-11-09 23:03:00,41.9,36.2,30.33,NE,45,0.0,0.0,80,0.00,,---,0.00,VWS V14.01,2013-11-10 05:03:00,
2013-11-09 23:08:00,41.9,35.9,30.33,NE,45,0.0,0.0,79,0.00,,---,0.00,VWS V14.01,2013-11-10 05:08:00,
2013-11-09 23:10:00,41.9,36.2,30.33,NE,45,0.0,0.0,80,0.00,,---,0.00,VWS V14.01,2013-11-10 05:10:00,
2013-11-09 23:15:00,42.3,38.1,30.33,South,180,0.0,0.0,85,0.00,,---,0.00,VWS V14.01,2013-11-10 05:15:00,
2013-11-09 23:17:00,42.3,38.1,30.33,South,180,0.0,0.0,85,0.00,,---,0.00,VWS V14.01,2013-11-10 05:17:00,
2013-11-09 23:22:00,42.3,37.8,30.33,SW,225,0.0,0.0,84,0.00,,---,0.00,VWS V14.01,2013-11-10 05:22:00,
2013-11-09 23:28:00,41.9,37.4,30.33,SW,225,0.0,0.0,84,0.00,,---,0.00,VWS V14.01,2013-11-10 05:28:00,
2013-11-09 23:33:00,41.7,37.0,30.33,SW,225,0.0,0.0,83,0.00,,---,0.00,VWS V14.01,2013-11-10 05:33:00,
2013-11-09 23:39:00,41.5,36.5,30.33,SW,225,0.0,0.0,82,0.00,,---,0.00,VWS V14.01,2013-11-10 05:39:00,
2013-11-09 23:44:00,41.2,36.7,30.33,SW,225,0.0,0.0,84,0.00,,---,0.00,VWS V14.01,2013-11-10 05:44:00,
2013-11-09 23:50:00,41.2,36.4,30.33,SW,225,0.0,0.0,83,0.00,,---,0.00,VWS V14.01,2013-11-10 05:50:00,
2013-11-09 23:56:00,41.0,36.2,30.30,SW,225,0.0,0.0,83,0.00,,---,0.00,VWS V14.01,2013-11-10 05:56:00,